Other Public Products
Issued by NWS Charleston, SC

Current Version | Previous Version | Text Only | Print | Product List | Glossary Off
Versions: 1 2 3 4 5 6 7 8 9 10 11 12 13 14 15 16 17 18 19 20 21 22 23 24 25 26 27 28 29 30 31 32 33 34 35 36 37 38 39 40 41 42 43 44 45 46 47 48 49 50
000 FPUS82 KCHS 240344 OPUCHS TEST...KCHS/KSAV Gateway Observations...TEST National Weather Service Charleston SC 1100 PM EDT SAT SEP 23 2017 NOTE: "fair" indicates few or no clouds below 12,000 feet with no significant weather and/or obstructions to visibility. SCZ050-WAZ558-NCZ071-TXZ119-213-PAZ071-DCZ001-FLZ074-172-MI076- NYZ176-178-MAZ016-IL014-TNZ027-NJZ106-GAZ044-MD014-240400- ...Gateway Observations for Charleston International... CITY SKY/WX TMP DP RH WIND PRES REMARKS Chas Airport PTCLDY 74 70 87 NE5 30.00S Seattle PTCLDY 62 49 62 N6 30.10R Charlotte PTCLDY 76 63 64 E6 30.08R Dallas DFW PTCLDY 85 65 51 SE9 29.86S Dallas Love CLEAR 85 65 51 SE13 29.87S Philladelphia CLEAR 73 65 75 CALM 30.05S Wash National PTCLDY 74 63 68 CALM 30.08S Baltimore CLEAR 64 62 93 W3 30.07S Miami MOCLDY 83 78 85 N3 29.83S HX 93 Detroit CLEAR 74 65 73 CALM 30.13S Newark CLEAR 78 54 43 N6 30.04R Laguardia CLEAR 76 59 55 N3 30.03S J F K CLEAR 76 53 44 N6 30.04S Boston Logan PTCLDY 60 60 100 CALM 30.05R FOG Ft. Lauderdale PTCLDY 83 78 85 NE8 29.82S HX 93 Chicago O`Hare CLEAR 78 65 63 SE8 30.05R Chicago Midway CLEAR 81 67 62 E6 30.05S Houston Bush PTCLDY 79 72 78 SE9 29.88S Houston Hobby PTCLDY 81 71 71 CALM 29.88R Nashville CLEAR 78 69 73 E5 30.03S Atlanta PTCLDY 76 65 68 E6 30.04R $$ GAZ044-118-TXZ119-213-NCZ071-DCZ001-MDZ014-506-PAZ021-071-NJZ106- NYZ176-178-MAZ106-OHZ011-021-055-MIZ076-KYZ091-ILZ014-INZ047- MNZ060-ONZ431-240400- ...Gateway Observations for Savannah International... CITY SKY/WX TMP DP RH WIND PRES REMARKS Savannah Arpt CLEAR 75 71 87 E5 30.00S Atlanta PTCLDY 76 65 68 E6 30.04R Charlotte PTCLDY 76 63 64 E6 30.08R Dallas DFW PTCLDY 85 65 51 SE9 29.86S Houston Bush PTCLDY 79 72 78 SE9 29.88S Wash National PTCLDY 74 63 68 CALM 30.08S Wash Dulles CLEAR 63 62 97 CALM 30.09S Baltimore CLEAR 64 62 93 W3 30.07S Philadelphia CLEAR 73 65 75 CALM 30.05S Newark CLEAR 78 54 43 N6 30.04R Laguardia CLEAR 76 59 55 N3 30.03S J F K CLEAR 76 53 44 N6 30.04S Boston PTCLDY 60 60 100 CALM 30.05R FOG Pittsburg CLEAR 70 59 68 CALM 30.15R Akron PTCLDY 69 58 67 NE5 30.15R Cleveland CLEAR 71 57 61 CALM 30.15R Cincinnati CLEAR 77 66 68 CALM 30.08S Columbus CLEAR 66 61 85 E5 30.09S Detroit CLEAR 74 65 73 CALM 30.13S Chicago O`Hare CLEAR 78 65 63 SE8 30.05R Minneapolis MOCLDY 79 69 71 SE8 29.92S Indianapolis CLEAR 78 62 57 SE3 30.07S Toronto Canada CLEAR 77 66 69 NW9 30.09R $$

USA.gov is the U.S. government's official web portal to all federal, state and local government web resources and services.